Location: Katowice
(50.2670°N, 19.0170°E)
Time: 14:01:46
(UTC+01:00)

Envisat - Visible Passes

Search period start: 08 December 2022 00:00
Search period end: 18 December 2022 00:00
Orbit: 763 x 765 km, 98.2° (Epoch: 08 December)

Date Brightness Start Highest point End Pass type
(mag) Time Alt. Az. Time Alt. Az. Time Alt. Az.
08 Dec 4.9 03:53:56 10° NNE 03:55:39 21° NNE 03:55:39 21° NNE visible
08 Dec 4.5 05:33:42 10° N 05:35:50 19° NNW 05:35:50 19° NNW visible
09 Dec 5.6 03:17:15 10° NNE 03:18:06 14° NE 03:18:06 14° NE visible
09 Dec 4.4 04:56:10 10° N 04:58:16 23° N 04:58:16 23° N visible
09 Dec 5.7 16:16:58 10° SW 16:20:37 20° W 16:24:17 10° NW visible
10 Dec 4.7 04:18:57 10° NNE 04:20:43 22° N 04:20:43 22° N visible
10 Dec 4.7 05:59:26 10° NNW 06:00:53 14° NW 06:00:53 14° NW visible
11 Dec 5.3 03:42:01 10° NNE 03:43:10 17° NNE 03:43:10 17° NNE visible
11 Dec 4.6 05:21:31 10° N 05:23:20 19° NNW 05:23:20 19° NNW visible
11 Dec 6.0 16:44:07 10° WSW 16:46:01 12° W 16:47:55 10° WNW visible
12 Dec 5.9 03:05:30 10° NE 03:05:37 11° NE 03:05:37 11° NE visible
12 Dec 4.7 04:44:06 10° N 04:45:48 21° N 04:45:48 21° N visible
13 Dec 5.0 04:06:58 10° NNE 04:08:16 18° NNE 04:08:16 18° NNE visible
13 Dec 4.8 05:47:06 10° NNW 05:48:26 15° NNW 05:48:26 15° NNW visible
14 Dec 5.6 03:30:09 10° NNE 03:30:44 13° NNE 03:30:44 13° NNE visible
14 Dec 4.7 05:09:23 10° N 05:10:55 18° NNW 05:10:55 18° NNW visible
14 Dec 5.8 16:30:57 10° WSW 16:33:52 15° W 16:36:47 10° NW visible
15 Dec 4.9 04:32:04 10° N 04:33:24 18° N 04:33:24 18° N visible
15 Dec 5.0 06:13:10 10° NNW 06:13:34 11° NNW 06:13:34 11° NNW visible
16 Dec 5.3 03:55:01 10° NNE 03:55:53 15° NNE 03:55:53 15° NNE visible
16 Dec 4.8 05:34:51 10° N 05:36:04 15° NNW 05:36:04 15° NNW visible
17 Dec 5.8 03:18:19 10° NNE 03:18:22 10° NNE 03:18:22 10° NNE visible
17 Dec 4.8 04:57:17 10° N 04:58:33 17° N 04:58:33 17° N visible
17 Dec 5.7 16:18:11 10° SW 16:21:44 19° W 16:25:18 10° NW visible
